Flag for U.S.A. Weather past 2 weeks in Bellingham, Washington, U.S.A.

Now
50 °F

Sunny.


Feels Like: 47 °F
Forecast: 47 / 54 °F
Wind: 7 mph from North

Location: Bellingham International Airport

Current Time: Mar 31, 2015 at 10:53:00 AM

Latest Report: Mar 31, 2015 at 9:53 AM


Visibility: 10 mi

Pressure: 30.02 "Hg

Humidity: 63%

Dew point: 38 °F

Location of BellinghamLocation

Historic Weather in Bellingham — Graph

°F

Bellingham temperature yesterday

Maximum temperature yesterday: 62 °F (at 1:53 PM)
Minimum temperature yesterday: 49 °F (at 1:53 AM)
Average temperature yesterday: 56 °F

Past Weeks' High & Low Weather Summary

 TemperatureHumidityPressure
High64 °F (Mar 26, 12:53 PM)97% (Mar 27, 6:53 AM)30.34 "Hg (Mar 27, 6:53 AM)
Low37 °F (Mar 17, 7:53 AM)36% (Mar 16, 3:53 PM)29.75 "Hg (Mar 30, 11:53 PM)
Average51 °F76%30.09 "Hg
* Reported Mar 16 9:53 AM — Mar 31 9:53 AM, Bellingham, Weather by CustomWeather, © 2015

Note: Actual official high and low records may vary slightly from our data, if they occured in-between our weather recording intervals... More about our weather records

Advertising

Bellingham weather history for previous 24 hours

 ConditionsComfort  
Time TempWeatherWind HumidityBarometerVisibility
9:53 AM
Tue, Mar 31
50 °FSunny.7 mph63%30.02 "Hg10 mi
8:53 AM49 °FSunny.7 mph69%30.00 "Hg10 mi
7:53 AM45 °FSunny.No wind82%29.99 "Hg10 mi
6:53 AM45 °FPassing clouds.No wind93%29.97 "Hg10 mi
5:53 AM47 °FPartly cloudy.No wind86%29.95 "Hg10 mi
4:53 AM46 °FLight rain. Mostly cloudy.No wind89%29.92 "Hg10 mi
3:53 AM47 °FMostly cloudy.No wind86%29.89 "Hg10 mi
3:01 AM48 °FLight rain. Fog.6 mph87%29.85 "Hg4 mi
1:53 AM52 °FLight rain. Overcast.7 mph77%29.81 "Hg10 mi
12:53 AM56 °FMostly cloudy.22 mph67%29.76 "Hg10 mi
11:53 PM
Mon, Mar 30
59 °FOvercast.18 mph49%29.75 "Hg10 mi
10:53 PM56 °FPassing clouds.9 mph67%29.78 "Hg10 mi
9:53 PM59 °FClear.16 mph58%29.81 "Hg10 mi
8:53 PM57 °FClear.7 mph67%29.83 "Hg10 mi
7:53 PM58 °FSunny.3 mph62%29.83 "Hg10 mi
6:53 PM59 °FSunny.3 mph60%29.84 "Hg10 mi
5:53 PM60 °FSunny.3 mph58%29.86 "Hg10 mi
4:53 PM61 °FSunny.6 mph54%29.89 "Hg10 mi
3:53 PM60 °FSunny.6 mph58%29.93 "Hg10 mi
2:53 PM62 °FSunny.10 mph56%29.96 "Hg10 mi
1:53 PM62 °FSunny.12 mph58%29.98 "Hg10 mi
12:53 PM61 °FPassing clouds.13 mph62%30.01 "Hg10 mi
11:53 AM60 °FPassing clouds.12 mph62%30.02 "Hg10 mi
10:53 AM58 °FOvercast.7 mph70%30.04 "Hg10 mi
Weather by CustomWeather, © 2015

See weather overviewHow to use our weather pages